• In Latvia
  • List of Countries
  • For 7 days
  • Water Temperature
  • Satellite Maps
  • Weather Map
  • Weather Widgets
  • user-avatar
    Login

    Hourly Weather Mendoza

    Today, 24 September, Sunday

    Time Temperature Precipitation Wind Pressure Humidity
    00:00 +19°C° 0 mm 3 mps 697 mmHg 34%
    01:00 +19°C° 0 mm 3 mps 697 mmHg 35%
    02:00 +18°C° 0 mm 3 mps 697 mmHg 36%
    03:00 +17°C° 0 mm 3 mps 696 mmHg 37%
    04:00 +17°C° 0 mm 3 mps 696 mmHg 38%
    05:00 +18°C° 0 mm 3 mps 696 mmHg 36%
    06:00 +19°C° 0 mm 3 mps 697 mmHg 35%
    07:00 +19°C° 0 mm 3 mps 697 mmHg 34%
    08:00 +21°C° 0 mm 3 mps 697 mmHg 32%
    09:00 +24°C° 0 mm 3 mps 697 mmHg 30%
    10:00 +25°C° 0 mm 3 mps 697 mmHg 28%
    11:00 +26°C° 0 mm 3 mps 697 mmHg 26%
    12:00 +27°C° 0 mm 3 mps 697 mmHg 25%
    13:00 +28°C° 0 mm 3 mps 697 mmHg 23%
    14:00 +28°C° 0 mm 3 mps 697 mmHg 23%
    15:00 +29°C° 0 mm 3 mps 698 mmHg 22%
    16:00 +29°C° 0 mm 3 mps 698 mmHg 21%
    17:00 +28°C° 0 mm 3 mps 698 mmHg 24%
    18:00 +26°C° 0 mm 3 mps 699 mmHg 27%
    19:00 +25°C° 0 mm 3 mps 700 mmHg 29%
    20:00 +24°C° 0 mm 2 mps 700 mmHg 31%
    21:00 +23°C° 0 mm 2 mps 700 mmHg 33%
    22:00 +23°C° 0 mm 2 mps 701 mmHg 35%
    23:00 +21°C° 0 mm 3 mps 701 mmHg 34%

    Tomorrow, 25 September, Monday

    Time Temperature Precipitation Wind Pressure Humidity
    00:00 +20°C° 0 mm 3 mps 701 mmHg 34%
    01:00 +20°C° 0 mm 4 mps 701 mmHg 34%
    02:00 +19°C° 0 mm 4 mps 701 mmHg 33%
    03:00 +18°C° 0 mm 4 mps 701 mmHg 32%
    04:00 +17°C° 0 mm 4 mps 701 mmHg 31%
    05:00 +17°C° 0 mm 5 mps 701 mmHg 31%
    06:00 +17°C° 0 mm 5 mps 702 mmHg 31%
    07:00 +17°C° 0 mm 5 mps 702 mmHg 31%
    08:00 +19°C° 0 mm 5 mps 702 mmHg 31%
    09:00 +21°C° 0 mm 5 mps 702 mmHg 31%
    10:00 +22°C° 0 mm 5 mps 702 mmHg 31%
    11:00 +23°C° 0 mm 5 mps 701 mmHg 32%
    12:00 +23°C° 0 mm 4 mps 700 mmHg 32%
    13:00 +25°C° 0 mm 4 mps 700 mmHg 33%
    14:00 +25°C° 0 mm 4 mps 699 mmHg 35%
    15:00 +25°C° 0 mm 4 mps 699 mmHg 36%
    16:00 +25°C° 0 mm 4 mps 699 mmHg 38%
    17:00 +23°C° 0 mm 4 mps 699 mmHg 42%
    18:00 +22°C° 0 mm 4 mps 699 mmHg 46%
    19:00 +21°C° 0 mm 4 mps 699 mmHg 50%
    20:00 +20°C° 0 mm 4 mps 699 mmHg 49%
    21:00 +19°C° 0 mm 4 mps 699 mmHg 48%
    22:00 +19°C° 0 mm 3 mps 699 mmHg 48%
    23:00 +18°C° 0 mm 3 mps 699 mmHg 49%

    Day after tomorrow, 26 September, Tuesday

    Time Temperature Precipitation Wind Pressure Humidity
    00:00 +18°C° 0 mm 3 mps 698 mmHg 50%
    01:00 +17°C° 0 mm 4 mps 698 mmHg 51%
    02:00 +16°C° 0 mm 3 mps 697 mmHg 52%
    03:00 +16°C° 0 mm 3 mps 697 mmHg 54%
    04:00 +14°C° 0 mm 3 mps 697 mmHg 56%
    05:00 +16°C° 0 mm 3 mps 697 mmHg 56%
    06:00 +15°C° 0 mm 4 mps 697 mmHg 57%
    07:00 +17°C° 0 mm 4 mps 698 mmHg 57%
    08:00 +17°C° 0 mm 4 mps 698 mmHg 58%
    09:00 +17°C° 0 mm 5 mps 698 mmHg 58%
    10:00 +19°C° 0 mm 5 mps 698 mmHg 58%
    11:00 +19°C° 0 mm 6 mps 698 mmHg 59%
    12:00 +19°C° 0 mm 6 mps 698 mmHg 59%
    13:00 +20°C° 0 mm 6 mps 697 mmHg 59%
    14:00 +18°C° 0 mm 7 mps 697 mmHg 61%
    15:00 +17°C° 0 mm 7 mps 697 mmHg 64%
    16:00 +16°C° 0 mm 7 mps 697 mmHg 66%
    17:00 +15°C° 0 mm 6 mps 698 mmHg 69%
    18:00 +14°C° 0 mm 6 mps 699 mmHg 72%
    19:00 +13°C° 0 mm 6 mps 700 mmHg 75%
    20:00 +12°C° 0 mm 5 mps 700 mmHg 75%
    21:00 +12°C° 0 mm 5 mps 700 mmHg 75%
    22:00 +12°C° 0 mm 5 mps 700 mmHg 76%
    23:00 +10°C° 0 mm 5 mps 700 mmHg 76%

    27 September, Wednesday

    Time Temperature Precipitation Wind Pressure Humidity
    00:00 +11°C° 0 mm 4 mps 700 mmHg 75%
    01:00 +11°C° 0 mm 4 mps 700 mmHg 75%
    02:00 +11°C° 0 mm 4 mps 699 mmHg 76%
    03:00 +10°C° 0 mm 4 mps 699 mmHg 77%
    04:00 +10°C° 0 mm 4 mps 699 mmHg 77%
    05:00 +10°C° 0 mm 3 mps 699 mmHg 76%
    06:00 +10°C° 0 mm 3 mps 700 mmHg 76%
    07:00 +10°C° 0 mm 3 mps 700 mmHg 75%
    08:00 +11°C° 0 mm 3 mps 700 mmHg 70%
    09:00 +13°C° 0 mm 3 mps 700 mmHg 64%
    10:00 +14°C° 0 mm 3 mps 700 mmHg 59%
    11:00 +16°C° 0 mm 3 mps 699 mmHg 56%
    12:00 +17°C° 0 mm 3 mps 698 mmHg 52%
    13:00 +18°C° 0 mm 3 mps 698 mmHg 48%
    14:00 +18°C° 0 mm 3 mps 698 mmHg 49%
    15:00 +18°C° 0 mm 3 mps 697 mmHg 50%
    16:00 +18°C° 0 mm 3 mps 697 mmHg 51%
    17:00 +18°C° 0 mm 3 mps 698 mmHg 54%
    18:00 +17°C° 0 mm 3 mps 698 mmHg 57%
    19:00 +16°C° 0 mm 2 mps 699 mmHg 60%
    20:00 +16°C° 0 mm 2 mps 699 mmHg 61%
    21:00 +16°C° 0 mm 2 mps 699 mmHg 63%
    22:00 +15°C° 0 mm 2 mps 699 mmHg 65%
    23:00 +15°C° 0 mm 2 mps 698 mmHg 67%

    28 September, Thursday

    Time Temperature Precipitation Wind Pressure Humidity
    00:00 +14°C° 0 mm 2 mps 698 mmHg 69%
    01:00 +14°C° 0 mm 1 mps 698 mmHg 71%
    02:00 +13°C° 0 mm 1 mps 698 mmHg 73%
    03:00 +13°C° 0 mm 1 mps 697 mmHg 75%
    04:00 +12°C° 0 mm 1 mps 697 mmHg 77%
    05:00 +13°C° 0 mm 1 mps 698 mmHg 74%
    06:00 +14°C° 0 mm 1 mps 698 mmHg 71%
    07:00 +15°C° 0 mm 1 mps 699 mmHg 67%
    08:00 +16°C° 0 mm 2 mps 699 mmHg 62%
    09:00 +18°C° 0 mm 2 mps 699 mmHg 56%
    10:00 +19°C° 0 mm 2 mps 699 mmHg 50%
    11:00 +20°C° 0 mm 3 mps 698 mmHg 47%
    12:00 +21°C° 0 mm 3 mps 698 mmHg 44%
    13:00 +24°C° 0 mm 3 mps 697 mmHg 41%
    14:00 +24°C° 0 mm 3 mps 697 mmHg 40%
    15:00 +24°C° 0 mm 3 mps 697 mmHg 39%
    16:00 +24°C° 0 mm 3 mps 697 mmHg 39%
    17:00 +22°C° 0 mm 3 mps 697 mmHg 42%
    18:00 +21°C° 0 mm 2 mps 698 mmHg 45%
    19:00 +21°C° 0 mm 2 mps 699 mmHg 49%
    20:00 +20°C° 0 mm 2 mps 699 mmHg 51%
    21:00 +20°C° 0 mm 2 mps 699 mmHg 53%
    22:00 +19°C° 0 mm 2 mps 699 mmHg 55%
    23:00 +19°C° 0 mm 3 mps 699 mmHg 57%

    29 September, Friday

    Time Temperature Precipitation Wind Pressure Humidity
    00:00 +18°C° 0 mm 3 mps 698 mmHg 60%
    01:00 +18°C° 0 mm 3 mps 698 mmHg 63%
    02:00 +17°C° 0 mm 2 mps 698 mmHg 65%
    03:00 +17°C° 0 mm 2 mps 698 mmHg 67%
    04:00 +16°C° 0 mm 2 mps 697 mmHg 69%
    05:00 +17°C° 0 mm 2 mps 698 mmHg 66%
    06:00 +18°C° 0 mm 3 mps 698 mmHg 63%
    07:00 +19°C° 0 mm 3 mps 698 mmHg 60%
    08:00 +20°C° 0 mm 3 mps 698 mmHg 54%
    09:00 +22°C° 0 mm 4 mps 698 mmHg 48%
    10:00 +25°C° 0 mm 4 mps 698 mmHg 42%
    11:00 +26°C° 0 mm 5 mps 697 mmHg 38%
    12:00 +27°C° 0 mm 5 mps 697 mmHg 33%
    13:00 +28°C° 0 mm 5 mps 696 mmHg 29%
    14:00 +28°C° 0 mm 5 mps 696 mmHg 28%
    15:00 +28°C° 0 mm 5 mps 695 mmHg 27%
    16:00 +29°C° 0 mm 5 mps 695 mmHg 26%
    17:00 +28°C° 0 mm 4 mps 695 mmHg 29%
    18:00 +26°C° 0 mm 4 mps 695 mmHg 31%
    19:00 +25°C° 0 mm 3 mps 695 mmHg 34%
    20:00 +25°C° 0 mm 3 mps 695 mmHg 36%
    21:00 +23°C° 0 mm 4 mps 694 mmHg 38%
    22:00 +22°C° 0 mm 4 mps 694 mmHg 40%
    23:00 +22°C° 0.1 mm 4 mps 693 mmHg 39%
    Show more